User: anonymous   Login
Location: Hopkins Observatory
(42.6965°N, 73.1843°W)
Time: 11:22:03
(UTC-04:00)
Language:

RS-15 - Orbit

View from above orbital plane
View from above orbital plane
View from above satellite
View from above satellite

Ground track
Ground track

The orbit data is extracted from the following two-line orbital elements,

1 23439U 94085A   15206.85464253 -.00000033  00000-0  28060-3 0  9994
2 23439 064.8167 258.9335 0155144 005.6160 354.6465 11.27562619847516
Epoch (UTC): 25 July 2015 20:30:41
Eccentricity: 0.0155144
inclination: 64.8167°
perigee height: 1892 km
apogee height: 2153 km
right ascension of ascending node: 258.9335°
argument of perigee: 5.6160°
revolutions per day: 11.27562619
mean anomaly at epoch: 354.6465°
orbit number at epoch: 84751

The dashed part of the orbit path shows where the satellite is in the earth's shadow,  

DLR